Wind_Speed
22 22 22 22 22 22 21 21 20 20 19 19 18 18 18 17 16 16 16 16 15 15 15 15 15 15 15 13 11 10 8 7 8 12 12 9 10 14 14 13 13 12 14 17 18 17 17 17 16 16 13 12 12 12 11 11 11 10 9 8 6 6 6 6 3 2 2 2 3 5 2 1 1 1 2 1 0 1 1 1 1 1 2 3 3 2 2 3
22 22 22 22 22 22 22 22 22 21 21 20 19 19 18 18 17 17 17 17 17 17 16 16 15 15 16 16 14 12 10 9 9 10 9 8 10 15 16 15 14 13 14 17 18 19 20 20 19 19 16 15 15 13 12 12 12 11 10 9 7 6 6 6 5 3 2 3 6 6 3 1 1 0 2 2 1 1 1 1 1 1 2 2 3 3 2 3
23 23 23 23 23 23 23 23 23 23 22 21 21 20 19 19 18 17 17 18 19 18 17 17 16 15 15 16 16 15 12 11 11 10 8 10 13 14 15 16 16 14 16 18 19 20 21 22 22 21 19 19 17 16 15 13 12 12 11 10 8 8 7 6 6 3 2 3 3 4 4 3 3 2 1 1 1 1 1 1 1 1 2 3 3 4 4 4
23 23 24 24 24 24 24 24 24 23 23 23 22 22 21 20 19 18 18 18 20 20 18 17 17 16 16 17 16 16 15 12 14 12 8 10 12 14 15 16 17 17 17 18 19 20 21 22 22 21 21 20 19 18 17 15 14 13 12 11 10 9 7 6 7 7 6 4 3 3 4 4 5 4 1 1 1 1 0 2 1 1 2 3 4 4 4 5
24 24 24 24 25 25 25 25 24 24 24 24 24 23 22 21 21 20 19 19 19 20 20 18 18 18 17 17 16 17 16 14 17 14 9 10 12 13 14 16 17 19 19 19 19 19 19 20 20 21 21 21 21 20 18 16 15 14 13 13 11 9 8 7 7 10 9 4 5 4 4 6 7 7 4 2 1 1 2 1 0 1 0 1 3 4 5 5
26 26 25 25 26 25 26 26 26 26 25 25 25 25 24 23 23 21 20 20 20 21 21 19 18 19 19 17 17 17 15 16 18 16 12 13 14 13 14 15 17 19 20 20 20 20 18 18 18 19 19 21 20 19 18 18 17 16 15 13 12 11 11 9 7 9 8 4 5 6 6 7 8 8 6 5 2 2 2 1 1 1 0 1 2 4 5 5
29 28 28 28 28 27 27 27 27 27 27 27 27 27 26 25 24 23 23 21 21 21 21 21 19 20 20 19 18 17 17 17 17 17 17 15 15 15 14 15 17 18 20 22 23 22 20 18 16 16 18 19 18 18 19 19 18 17 16 14 13 12 12 10 8 9 8 4 6 8 8 8 9 7 7 6 2 1 2 2 2 2 1 2 2 3 4 5
31 31 30 31 30 30 30 29 29 28 28 28 28 28 28 27 26 26 25 24 23 22 22 21 20 20 20 20 19 18 19 17 14 19 21 16 16 16 14 14 16 18 20 23 25 24 23 20 18 17 17 17 18 19 20 20 18 16 16 15 13 12 13 13 12 12 12 9 8 10 9 9 8 7 8 8 3 1 3 4 5 4 2 2 3 4 4 5
31 31 32 32 32 32 32 32 31 31 30 30 30 30 29 29 29 28 27 26 26 25 24 22 21 21 20 20 18 19 22 18 15 20 21 18 17 17 16 15 15 18 20 22 25 26 24 22 20 18 17 18 19 20 21 21 17 15 16 16 14 14 14 14 14 15 14 11 10 11 11 9 7 7 9 10 5 3 3 5 6 4 3 4 3 4 4 4
32 32 32 32 33 33 33 33 33 33 33 32 32 31 31 30 30 30 29 28 28 27 27 24 23 21 21 20 17 21 26 20 17 20 20 19 20 19 18 16 15 17 19 21 23 24 25 24 22 21 20 20 20 21 22 20 18 17 18 18 16 16 16 16 16 15 14 12 12 12 11 9 9 9 10 11 7 5 4 5 5 4 4 4 3 3 4 4
32 32 32 32 33 33 34 34 34 34 34 34 34 34 34 33 32 31 31 30 29 30 29 27 25 23 22 19 17 25 27 19 17 20 21 21 21 20 19 17 16 17 18 20 21 23 25 26 26 25 23 21 21 22 22 20 20 21 20 20 19 17 18 19 18 15 14 13 13 13 12 12 11 7 8 12 9 6 5 5 4 4 3 3 3 3 4 4
33 33 33 33 33 33 34 34 34 35 35 35 35 35 35 35 35 34 33 32 31 32 31 30 28 26 23 17 19 29 26 17 17 20 22 22 22 21 19 19 18 18 18 19 21 22 24 27 28 27 25 23 22 22 21 19 21 22 22 23 21 18 16 17 18 17 16 15 15 15 14 14 10 6 9 15 12 8 6 5 5 5 4 4 4 3 4 5
33 33 33 33 33 33 34 34 34 35 35 36 35 36 36 37 37 36 36 34 33 33 32 33 31 29 26 18 24 32 24 18 19 20 22 24 24 22 20 21 20 20 19 19 21 22 23 25 27 28 28 27 24 22 21 21 22 23 23 24 23 19 15 14 16 18 18 16 15 15 14 13 10 9 13 15 13 10 6 5 6 5 6 6 5 4 5 5
32 33 33 33 33 33 34 34 34 34 35 35 36 36 36 37 38 38 38 37 36 35 34 35 33 32 28 22 29 33 25 20 18 19 23 25 26 24 21 22 22 21 21 21 21 22 23 24 26 28 29 28 26 24 25 26 26 25 26 25 23 20 16 15 15 16 17 16 15 16 14 12 12 12 13 15 16 12 7 6 5 4 6 6 7 6 5 6
33 33 34 34 34 34 34 34 34 34 34 35 35 36 36 37 38 38 39 39 39 38 37 36 35 34 30 26 32 34 28 23 19 22 26 27 28 25 22 23 24 23 23 23 22 22 23 23 25 27 28 29 28 27 27 27 26 25 25 23 21 19 16 16 16 15 15 15 16 16 13 12 14 13 13 17 19 14 10 8 5 4 7 7 7 7 6 6
34 35 36 36 36 36 35 35 35 35 34 35 35 36 36 37 38 39 39 39 40 40 40 39 37 36 32 29 33 34 31 27 24 26 27 26 26 25 24 25 25 25 25 25 24 24 23 23 24 25 27 29 29 28 28 28 25 23 23 20 19 18 17 18 17 14 14 16 18 17 14 14 15 13 15 19 18 16 13 9 6 6 8 8 7 7 7 8
37 38 39 39 39 39 39 38 38 37 37 36 36 36 36 36 37 38 38 39 40 41 42 41 40 39 35 32 34 36 35 31 29 27 25 26 26 26 27 26 27 27 26 27 26 26 25 24 23 24 26 27 28 29 30 28 23 21 21 20 19 18 18 18 17 15 16 19 21 20 18 16 16 13 15 20 19 17 14 9 7 7 7 8 7 7 8 8
41 41 42 43 42 42 42 42 41 40 40 39 39 38 38 37 38 38 37 38 40 41 43 43 42 41 38 35 35 36 37 34 32 29 27 28 27 27 27 27 29 29 29 29 27 27 27 25 25 25 25 25 26 29 29 25 21 21 20 19 18 18 19 17 16 18 17 19 21 22 18 15 16 15 16 21 21 18 13 8 9 9 7 8 8 8 8 7
43 44 44 45 46 46 46 46 45 44 44 43 42 41 41 40 39 39 38 37 39 40 42 43 43 41 39 38 36 37 39 37 36 33 30 29 29 29 28 28 30 31 32 31 28 29 28 28 28 25 22 21 22 24 25 23 23 22 21 20 20 19 18 14 16 15 11 13 18 19 16 14 18 19 19 22 21 18 14 10 10 10 8 8 9 10 8 7
45 45 46 46 47 47 47 48 49 48 48 47 46 45 45 44 43 42 40 38 38 39 41 42 43 40 39 41 40 39 40 40 38 36 33 32 32 32 31 30 30 32 32 30 29 30 30 31 28 22 20 19 20 21 22 24 25 25 25 24 21 20 18 14 15 12 6 12 13 13 15 14 20 22 21 22 21 19 16 14 12 10 10 11 11 10 8 8
46 47 47 47 48 48 48 48 49 49 50 50 50 49 49 48 46 45 43 40 39 40 40 41 43 41 36 40 42 41 42 42 39 38 35 35 35 36 34 32 31 31 29 29 31 32 34 32 24 21 22 22 22 22 23 25 27 28 28 25 22 22 19 15 15 14 13 17 17 16 19 16 19 23 21 21 22 21 17 15 13 11 11 13 13 10 8 9
48 49 49 50 50 50 50 50 50 50 50 50 50 50 51 51 51 49 45 41 40 42 42 40 42 41 34 37 42 43 44 44 41 39 37 38 38 38 36 33 32 28 28 33 35 36 36 27 19 22 25 25 25 24 25 26 28 30 30 28 26 24 21 17 16 18 20 20 21 22 24 20 18 21 22 22 23 24 20 17 16 14 14 14 13 11 9 9
51 51 52 52 53 54 53 54 55 54 53 52 51 51 51 51 53 53 50 45 39 40 45 44 42 40 35 35 41 45 44 43 43 40 40 41 40 39 38 35 32 29 31 34 36 36 31 20 20 26 27 27 27 25 26 28 30 32 32 31 28 25 23 18 16 20 23 21 24 24 25 23 20 21 23 24 25 25 22 21 20 18 15 13 12 12 11 10
54 54 55 55 57 58 57 58 59 59 58 58 57 56 54 52 53 53 53 50 42 40 44 45 43 41 37 36 41 46 44 42 44 43 42 43 41 41 41 37 34 33 33 33 33 34 28 21 26 30 28 28 29 27 28 29 29 31 32 33 29 26 25 20 15 14 19 23 26 26 28 29 24 24 27 27 27 27 23 23 23 19 16 14 13 14 13 11
56 57 58 58 58 58 60 60 60 61 61 61 61 61 60 59 57 54 53 51 47 46 46 44 44 43 41 40 43 45 45 43 43 43 44 44 42 42 42 40 38 36 35 33 33 33 28 27 31 32 30 30 30 30 29 28 29 30 31 33 30 27 27 24 23 15 17 23 26 27 30 31 24 22 28 30 30 29 24 22 23 21 19 16 13 13 15 13
57 58 58 59 57 54 55 55 55 57 57 58 60 61 62 62 62 60 56 52 49 51 50 47 47 47 45 44 43 44 45 43 40 42 45 44 43 44 45 44 41 39 37 36 36 34 30 31 35 34 32 31 32 32 30 29 29 29 28 30 31 31 31 29 31 27 24 24 28 29 28 29 26 21 23 26 29 30 26 24 26 22 20 17 13 14 15 13
55 55 54 54 52 48 46 45 47 49 49 49 51 54 56 60 63 62 60 57 52 51 52 51 49 47 47 47 45 46 46 42 39 41 44 45 45 46 46 46 44 41 40 40 39 35 31 34 37 35 32 33 33 31 30 29 29 28 25 28 32 33 34 32 34 36 30 25 28 33 29 28 29 24 20 21 26 30 28 26 28 23 18 16 14 15 15 14
51 50 47 45 44 43 41 39 39 40 42 43 44 46 48 53 60 62 60 57 49 45 49 51 50 49 49 49 48 47 46 43 40 38 42 45 46 46 47 47 46 44 43 43 41 33 30 33 36 35 34 34 32 28 28 30 30 28 25 28 32 33 34 32 36 39 34 29 28 32 33 31 30 27 25 25 25 28 28 25 26 24 20 16 13 16 17 15
46 42 38 37 39 40 40 39 38 39 40 41 42 43 45 49 53 57 58 53 43 39 44 49 51 52 52 52 50 48 47 47 45 41 42 47 47 45 46 46 46 46 45 45 42 36 34 34 35 36 36 35 32 28 29 32 31 27 25 28 31 34 34 34 38 40 38 36 33 29 32 34 33 28 26 28 27 26 25 24 25 25 24 20 14 15 17 17
38 34 33 35 38 39 39 40 40 42 42 42 43 43 44 48 48 49 49 44 38 37 43 50 53 53 53 55 54 51 49 49 48 46 45 47 48 46 45 46 47 48 48 47 46 42 38 36 37 38 37 35 33 31 31 33 31 28 27 29 31 34 36 36 38 40 42 44 40 33 29 33 35 28 22 27 29 26 25 25 26 26 25 21 14 13 15 17
31 31 34 36 36 36 37 38 39 41 42 43 44 44 45 46 43 39 36 34 32 33 40 50 53 52 54 56 56 55 53 51 50 48 47 48 50 49 48 49 50 51 51 50 49 46 43 42 40 39 38 36 35 34 34 34 32 30 30 31 31 32 34 37 39 41 45 47 42 38 34 34 37 29 21 25 27 24 23 24 25 27 27 22 14 10 11 14
30 33 36 35 35 35 36 36 37 39 40 43 44 44 45 45 40 32 30 35 33 32 39 49 52 52 53 54 56 57 54 52 50 49 49 49 51 52 51 50 52 53 53 52 51 49 46 45 43 41 40 39 39 38 38 37 35 34 34 33 33 32 34 37 40 44 48 46 41 39 39 39 39 30 23 27 27 19 15 17 21 24 25 23 18 12 10 14
31 34 35 35 35 35 36 36 36 38 40 42 43 44 45 45 44 35 27 35 35 37 44 51 52 49 49 48 49 54 54 48 44 45 48 49 50 51 51 49 49 51 51 51 52 50 46 45 44 43 42 41 41 41 41 40 37 36 36 34 33 34 35 37 39 41 44 42 40 40 40 42 40 32 27 26 23 17 12 17 21 21 22 23 20 14 14 15
33 34 35 36 36 36 37 36 36 38 41 42 43 43 44 45 46 40 29 28 31 41 49 51 51 46 44 44 39 42 51 46 37 36 40 46 50 51 51 50 49 50 50 50 51 51 49 48 46 44 43 42 41 42 41 39 36 35 34 33 34 35 35 35 33 33 35 37 40 43 42 41 40 36 30 24 21 18 15 18 25 26 26 27 24 18 20 17
35 35 35 36 38 38 38 38 38 40 40 40 41 41 42 43 44 41 31 26 26 39 52 50 46 43 44 48 43 39 47 49 44 42 39 39 45 49 51 51 48 49 51 51 51 51 51 49 45 43 44 41 40 42 40 38 37 36 37 37 36 34 32 30 28 29 31 34 38 41 38 35 36 37 34 30 28 25 22 23 27 31 30 29 28 22 19 19
38 37 37 37 39 40 39 39 40 40 40 38 38 39 39 40 41 40 33 23 22 31 48 52 44 44 47 50 48 43 46 50 49 48 46 40 40 42 46 49 48 48 50 51 51 51 51 49 45 44 44 42 41 42 42 40 39 39 40 38 33 30 29 29 30 29 30 32 33 34 33 33 36 37 35 34 32 30 32 31 30 30 29 27 28 23 17 17
39 39 39 39 40 41 40 40 39 39 39 36 34 36 36 36 36 38 37 26 20 24 39 50 43 41 47 50 50 46 45 48 48 47 48 46 41 36 36 41 43 45 48 50 50 50 49 48 47 46 44 43 41 41 41 41 40 42 41 36 32 31 31 32 34 31 30 31 28 28 29 29 33 31 27 29 28 28 32 34 32 31 30 29 30 24 17 17
40 41 41 40 41 42 40 39 39 38 36 34 34 36 35 34 33 33 36 30 22 21 29 45 46 40 42 50 51 47 45 46 47 47 48 49 47 42 39 39 39 42 45 46 48 49 47 42 42 46 46 43 41 41 42 42 42 43 41 36 33 34 36 38 36 32 31 29 27 26 26 25 27 23 19 21 23 21 24 27 30 33 34 33 31 25 20 20
42 43 44 42 41 41 39 39 39 37 35 34 34 35 34 33 33 32 32 29 23 22 24 38 49 45 40 44 49 49 48 47 49 51 51 53 52 51 53 51 46 46 46 47 48 48 47 40 33 37 43 42 41 45 45 44 45 44 40 37 35 35 37 38 35 31 29 28 25 22 21 21 21 16 14 16 17 18 20 23 26 31 36 36 32 28 24 21
43 44 46 44 41 39 39 38 39 38 36 35 33 33 33 33 31 31 30 27 23 22 23 31 42 47 46 45 44 50 51 49 52 55 57 58 57 55 59 56 49 46 47 52 54 50 49 48 37 28 31 37 43 50 49 44 45 46 43 41 39 37 36 37 34 31 29 27 23 18 19 19 14 11 13 14 13 15 16 21 26 28 32 34 31 29 24 19
45 45 45 44 40 37 36 36 37 37 35 33 32 31 31 32 30 29 28 26 24 22 23 27 36 42 47 49 44 47 51 51 53 56 60 63 61 59 60 56 50 46 46 51 55 51 50 52 46 35 27 35 42 46 48 46 44 44 44 44 42 38 36 37 35 32 31 29 24 18 16 13 10 13 16 13 12 15 15 19 27 27 27 30 29 28 24 20
45 46 45 44 41 37 36 36 35 35 33 32 32 30 28 30 30 27 26 25 23 21 20 26 33 38 43 50 48 45 48 51 52 54 58 63 62 59 59 57 53 51 49 52 57 57 56 53 47 42 36 34 35 34 39 42 40 40 42 43 43 39 37 37 35 32 32 31 28 21 13 9 11 16 17 13 13 16 16 17 23 24 25 28 29 27 24 21
46 46 45 43 41 38 36 35 34 33 33 32 31 30 29 29 28 26 24 24 23 21 18 23 31 36 39 47 52 50 48 51 53 52 54 60 59 56 58 58 57 55 54 56 60 61 59 55 49 44 40 36 34 32 33 33 33 37 41 41 42 42 40 36 33 32 32 32 31 27 19 13 11 13 14 16 16 17 16 17 21 23 24 27 28 28 27 23
47 45 43 40 37 36 36 35 34 34 34 34 32 30 29 27 25 24 22 22 23 21 18 20 27 34 37 42 50 55 53 52 53 51 50 55 55 54 58 61 61 60 57 57 59 60 60 57 52 47 43 40 39 39 39 37 34 37 42 42 42 41 39 36 33 31 32 33 33 32 25 17 13 13 16 20 21 19 16 16 20 22 22 24 26 28 28 24
46 44 42 38 35 35 36 35 36 37 37 36 33 30 27 25 23 22 22 20 20 21 20 20 22 30 36 40 46 54 58 55 53 51 48 50 52 53 59 64 64 64 62 59 58 62 63 60 56 54 50 46 44 45 46 45 40 39 40 42 43 41 36 35 35 33 32 32 32 33 30 23 21 20 19 23 25 22 19 17 19 21 20 22 24 26 25 22
44 43 43 40 36 36 36 35 36 37 36 34 32 29 25 22 20 20 21 19 18 19 21 21 20 23 31 38 42 51 59 57 53 51 45 46 50 51 57 65 66 65 65 61 59 62 65 63 61 58 54 50 46 44 43 44 41 37 38 40 43 43 36 32 34 35 32 31 30 30 32 31 28 26 24 24 23 22 25 24 20 21 23 22 21 21 20 18
43 43 44 42 38 36 36 36 35 35 33 32 30 27 23 20 19 19 19 18 18 18 20 20 20 20 24 32 39 48 58 57 55 52 45 43 47 49 53 62 67 68 67 64 62 64 66 66 64 61 57 52 47 40 37 39 40 36 34 38 41 43 40 33 32 33 30 29 28 26 30 32 30 29 29 27 24 25 30 30 22 19 21 21 19 20 21 21
43 43 42 41 40 37 36 35 35 34 32 30 28 24 20 18 18 18 18 18 19 19 18 18 19 19 21 26 33 44 56 59 58 54 47 43 43 45 50 59 67 69 68 66 66 68 69 68 66 64 60 55 48 41 38 39 41 38 32 34 39 42 44 38 32 30 28 28 27 24 27 30 28 26 28 27 28 30 31 28 22 18 19 21 22 23 24 23
43 42 41 41 41 40 39 37 36 35 31 27 24 20 17 16 16 18 18 17 18 19 18 17 16 17 19 22 27 37 51 58 61 58 51 43 40 41 45 53 64 69 68 67 70 70 69 70 69 67 64 58 50 46 44 44 45 41 32 33 37 39 43 42 33 28 26 26 24 21 23 28 26 24 25 27 30 32 30 26 22 21 22 23 25 26 24 22
43 43 43 44 42 42 40 37 35 32 27 24 20 16 14 15 16 17 17 17 17 17 18 17 15 14 16 19 22 31 43 53 61 62 55 46 39 37 39 46 59 68 67 66 70 70 69 72 72 69 67 61 51 48 49 49 48 43 35 38 41 38 40 42 36 29 26 25 23 20 22 25 25 25 27 28 30 31 30 27 24 26 27 26 27 27 25 22
42 43 45 45 43 40 38 34 31 27 23 20 16 13 14 16 16 16 15 16 16 16 17 17 16 14 14 16 18 24 35 45 56 63 60 51 40 34 35 42 56 67 65 63 69 70 69 73 74 71 69 62 52 51 55 55 51 46 39 41 45 39 37 41 40 32 27 26 25 24 26 28 28 29 29 27 28 31 31 28 27 28 28 27 28 29 26 22
40 41 44 44 42 38 35 32 29 26 22 18 14 13 15 16 16 17 15 14 15 15 15 15 15 13 12 14 16 19 27 37 48 59 63 57 44 33 31 39 54 64 60 60 68 71 69 71 74 74 70 63 56 55 58 56 54 48 40 39 42 38 34 37 39 36 29 27 28 28 29 32 33 32 31 28 29 31 31 28 28 28 27 29 30 30 29 29
Wind_Direction
305 304 304 304 303 303 302 302 301 300 299 297 296 294 293 291 289 287 283 280 276 274 274 273 273 276 279 280 279 278 276 269 258 253 255 259 243 232 231 227 229 224 216 223 226 223 223 222 223 225 224 220 216 212 208 205 198 190 200 207 199 199 191 193 193 168 168 159 229 245 242 359 31 44 16 52 80 258 280 251 194 238 245 224 211 207 199 192
302 302 302 301 301 301 301 301 300 300 299 298 296 294 293 292 289 286 283 279 274 270 270 270 269 269 272 275 276 277 276 270 260 256 262 262 241 233 232 229 229 223 216 222 224 223 222 221 223 225 224 224 223 220 214 212 208 197 202 213 205 200 194 183 185 163 133 200 230 240 245 278 207 84 353 3 43 299 306 305 196 199 217 220 225 227 231 231
302 301 300 299 299 298 298 298 299 299 298 297 295 294 293 291 290 286 282 279 276 271 267 267 268 265 266 269 272 274 274 272 268 261 256 251 245 240 235 228 227 222 218 221 225 224 223 222 223 224 224 225 227 225 221 217 214 207 204 212 212 203 193 181 192 206 208 225 235 250 276 280 248 241 222 267 337 331 326 69 50 212 195 208 232 245 245 244
300 300 299 299 297 296 295 295 295 295 296 295 294 293 292 291 289 286 284 280 278 275 269 265 265 264 261 261 266 269 271 273 268 259 250 251 249 246 240 232 227 223 220 222 227 228 226 227 226 226 227 227 228 229 227 222 219 215 208 212 218 211 206 210 223 231 234 270 291 260 285 283 271 281 262 250 16 34 48 92 51 279 198 207 238 255 254 249
297 297 297 297 296 296 295 294 292 292 291 291 291 291 290 290 288 286 284 281 279 277 273 266 263 263 260 257 259 262 266 268 264 263 257 252 249 245 243 238 230 225 223 224 229 231 231 231 229 230 231 230 232 234 232 227 225 222 216 214 217 216 214 224 237 229 218 246 286 276 283 278 276 286 298 296 231 207 268 201 99 283 228 215 244 257 258 255
294 294 293 293 293 292 292 292 291 290 289 287 287 287 287 287 287 286 283 281 280 277 276 271 265 263 260 257 254 255 259 260 263 268 259 249 250 247 243 242 236 229 226 226 230 233 234 233 231 230 233 235 236 236 233 230 228 227 224 216 213 214 210 220 237 225 212 217 269 270 268 271 272 279 291 288 251 187 232 226 182 234 326 309 261 265 262 254
293 292 291 290 289 289 289 289 288 289 288 287 286 284 284 283 284 284 283 282 279 277 276 274 270 266 262 259 256 254 252 252 259 265 256 248 250 249 242 240 240 234 228 227 229 233 235 235 233 230 229 234 235 232 232 231 229 227 227 221 216 214 208 218 223 222 244 264 265 265 262 266 267 271 284 284 276 137 216 230 232 229 243 318 301 277 268 256
292 290 290 288 288 287 286 285 285 285 285 285 284 283 283 281 281 280 280 280 279 277 275 274 273 269 266 261 257 255 251 246 248 256 255 252 251 250 244 238 238 237 232 229 229 231 233 233 232 230 227 228 228 227 228 229 228 226 229 227 222 217 209 216 220 228 254 265 258 265 259 258 263 266 279 282 277 224 244 238 240 243 251 294 298 275 265 254
290 290 289 288 287 285 284 283 282 281 281 281 281 281 281 280 279 278 277 277 277 277 275 274 272 270 269 266 262 259 253 242 237 249 254 253 252 251 246 240 237 238 237 233 231 232 234 234 233 231 226 224 223 222 225 227 224 221 226 229 224 220 216 217 223 231 246 250 248 254 246 243 244 246 269 277 263 227 237 243 246 255 271 282 281 268 264 253
289 288 287 286 285 284 283 282 281 279 278 278 277 277 278 278 278 276 275 274 274 274 274 273 271 270 269 268 268 262 254 242 236 247 252 250 250 250 247 241 238 239 239 237 235 234 234 234 233 231 227 224 222 221 224 224 220 218 220 227 226 222 222 221 223 226 234 240 238 242 247 248 235 234 261 264 245 220 228 251 257 261 278 281 265 253 260 252
290 289 288 287 285 284 283 282 280 279 278 276 275 274 274 274 274 274 274 272 271 271 271 272 270 269 268 269 271 261 256 249 242 246 250 249 247 248 248 244 240 238 239 239 237 235 233 233 232 231 228 226 225 224 224 220 218 219 217 222 226 224 222 221 223 224 228 232 232 237 245 245 230 222 259 256 246 229 230 255 253 238 251 267 271 261 259 260
293 292 290 289 287 285 284 282 281 279 277 276 274 273 272 271 270 270 270 270 270 269 269 268 268 268 267 268 266 259 257 254 245 244 249 249 245 243 246 246 241 238 237 237 236 234 233 233 233 233 230 228 227 227 228 222 220 223 221 221 224 225 226 223 222 222 226 228 229 233 236 240 232 207 242 253 255 238 227 261 248 218 230 250 276 285 278 280
295 294 292 291 289 288 286 284 282 280 278 276 274 273 271 270 269 268 267 267 266 267 266 266 265 265 264 263 261 261 261 255 247 245 247 249 246 240 241 245 241 237 236 236 236 234 233 233 233 233 232 230 228 226 224 221 221 224 227 228 225 224 227 230 227 223 225 228 230 232 231 239 239 227 240 249 252 238 221 257 254 236 247 255 272 288 287 282
297 296 294 293 291 289 287 286 284 282 281 278 276 273 271 270 268 267 266 265 263 263 263 264 263 262 261 257 258 262 263 256 251 250 247 245 246 240 235 241 242 239 237 236 237 235 233 233 232 232 232 232 231 227 222 221 221 223 226 229 229 228 228 232 234 229 228 229 234 237 231 233 236 233 240 247 249 243 229 237 247 259 256 262 283 289 285 285
300 299 297 295 294 292 289 287 285 284 282 280 278 275 273 270 268 266 265 265 263 261 260 260 261 261 258 252 255 262 263 259 253 248 246 243 244 241 235 237 239 239 237 236 236 236 235 233 232 233 233 233 232 230 228 228 227 226 228 229 229 229 226 228 233 235 231 229 233 237 233 229 235 231 225 238 248 246 239 236 224 230 240 257 285 289 287 295
301 300 299 297 296 294 292 290 288 285 283 281 279 277 274 272 269 267 265 264 263 261 259 257 257 258 255 249 253 259 258 255 249 246 248 249 248 244 237 235 237 238 237 236 235 236 236 234 232 232 232 232 232 233 233 234 231 229 231 232 230 226 225 228 231 230 226 229 231 232 231 227 229 229 223 231 243 245 245 244 226 225 243 258 278 285 288 295
300 299 297 296 295 294 292 291 289 287 285 283 280 278 275 272 270 268 266 264 262 261 259 257 255 255 253 249 250 254 255 254 252 250 252 253 251 246 239 235 236 238 237 237 235 235 236 235 233 232 232 231 231 232 233 235 234 232 234 235 233 227 224 226 231 229 223 230 234 229 224 227 225 217 225 235 240 247 249 242 239 241 246 259 273 277 278 288
298 297 296 294 293 292 291 289 288 286 285 283 281 279 277 274 271 268 266 264 263 261 260 258 255 253 252 251 249 251 253 253 251 249 248 250 250 247 242 236 235 236 236 236 235 235 235 235 234 232 232 232 231 232 235 236 235 235 237 237 235 232 227 222 227 233 229 226 232 233 221 218 225 211 220 240 241 243 242 226 242 252 239 253 274 274 273 284
297 296 294 293 292 291 290 288 287 285 284 282 280 279 277 275 272 269 265 264 263 261 261 259 256 254 253 251 247 248 249 248 248 246 244 247 248 247 244 238 235 235 235 236 236 236 236 235 234 232 234 238 238 238 239 237 235 235 236 235 232 232 230 223 222 227 238 229 222 233 231 223 232 220 216 236 241 237 235 228 241 256 252 254 267 269 277 289
296 295 293 292 290 289 288 286 285 284 282 281 279 277 276 274 272 270 266 263 262 262 261 260 257 254 253 251 247 245 247 247 247 246 243 242 244 244 243 240 236 235 235 236 238 238 238 236 234 234 237 240 239 238 236 233 231 231 232 231 227 228 227 221 219 207 230 256 233 237 254 245 237 228 218 228 237 232 231 241 246 255 264 262 259 261 277 293
297 296 294 292 290 289 287 285 283 281 280 278 277 276 274 272 271 269 266 264 263 262 260 260 259 255 252 254 250 245 245 246 245 245 244 242 243 244 243 242 240 238 237 236 237 237 237 235 233 234 236 236 234 230 228 226 224 225 229 228 223 222 218 214 218 190 192 244 252 253 264 251 229 228 225 226 234 236 237 248 248 242 250 255 258 263 275 288
301 300 297 296 294 291 289 287 284 281 279 276 275 273 272 271 270 268 266 263 262 262 261 258 258 257 253 253 253 247 243 244 243 242 241 240 242 245 245 244 243 241 237 235 235 235 236 235 233 234 232 232 231 227 225 222 219 220 223 225 222 216 209 205 204 176 177 223 244 248 258 253 230 228 231 229 233 239 241 246 245 235 235 244 255 268 271 274
305 304 302 301 299 296 294 292 290 286 282 279 275 272 269 268 267 266 266 263 258 259 262 259 256 256 253 252 253 250 244 243 244 241 239 239 239 242 244 244 243 240 238 237 237 238 238 236 235 234 230 229 230 228 227 223 218 217 217 221 221 216 208 194 186 175 174 208 236 241 249 255 249 237 233 234 238 239 237 239 242 238 239 243 248 261 263 260
309 308 306 305 304 301 298 296 295 291 286 282 279 274 270 266 264 263 263 263 260 254 256 258 257 254 252 249 249 249 245 241 241 239 237 237 236 237 240 241 240 238 239 240 240 240 235 228 231 232 227 227 228 226 226 226 223 219 216 218 217 218 213 182 169 194 190 205 228 237 245 252 249 238 231 232 239 240 234 232 237 237 242 244 239 250 259 257
313 311 310 308 308 307 303 301 299 296 291 287 283 278 274 269 264 261 259 260 259 254 251 252 254 252 248 246 246 248 246 241 240 240 238 236 234 235 237 237 236 237 238 238 239 239 231 225 230 231 226 224 225 225 225 227 228 223 218 219 213 212 213 180 162 195 209 212 223 229 240 247 244 233 228 227 234 242 239 237 236 230 233 240 234 243 255 258
316 314 313 311 311 311 308 305 303 301 298 293 288 283 278 273 267 261 258 256 253 251 249 247 247 248 246 244 244 246 246 242 240 240 239 236 233 233 234 234 234 234 236 236 236 235 227 224 228 230 228 225 226 226 224 225 228 227 220 219 214 209 211 191 171 184 203 217 231 233 237 249 250 240 235 232 234 241 243 246 248 238 232 235 230 233 246 257
318 317 316 315 314 314 313 311 309 306 304 301 296 290 285 279 271 263 258 254 253 251 248 244 242 242 241 240 239 241 243 242 240 240 240 238 234 232 233 234 233 232 232 232 234 233 227 226 228 228 228 228 228 227 227 227 229 230 220 215 217 214 215 203 182 183 193 206 229 240 244 253 254 248 255 255 239 238 240 244 255 257 244 232 217 216 229 246
320 320 320 320 319 318 317 317 315 312 310 309 305 299 295 286 276 268 260 255 256 253 247 242 239 237 236 236 236 238 240 239 238 238 239 237 234 232 232 234 233 231 230 232 235 233 229 230 231 230 228 230 231 227 226 228 228 228 221 215 216 217 219 211 192 185 187 194 212 234 244 248 247 246 260 261 244 241 241 238 251 262 259 246 220 210 217 232
323 323 324 325 325 324 322 321 321 320 320 318 315 311 308 299 286 274 265 258 253 245 239 239 239 236 236 235 234 233 234 235 234 232 233 234 231 229 230 231 233 231 228 232 234 229 226 227 229 228 228 229 229 225 223 227 228 225 221 218 214 214 217 214 204 192 187 193 198 213 237 244 243 245 251 252 247 247 245 239 244 255 261 259 235 215 219 225
324 324 325 326 326 326 326 326 326 327 327 327 324 321 321 315 300 285 275 264 250 237 232 234 235 235 234 234 233 230 228 230 231 228 228 232 230 227 225 226 229 230 228 228 229 226 222 222 224 225 225 225 224 222 222 225 226 222 220 219 214 214 214 214 214 204 197 200 195 194 219 240 245 241 236 242 248 251 249 243 242 246 253 257 242 222 225 225
323 323 324 325 325 324 325 326 327 328 328 329 329 329 331 327 313 293 278 262 245 231 230 231 231 230 229 230 231 231 227 226 227 226 225 228 229 225 221 220 222 224 225 225 226 225 220 219 221 222 222 221 220 220 221 222 222 219 218 218 215 215 214 213 215 213 212 213 205 195 201 222 237 236 233 245 251 251 247 241 239 244 249 252 249 234 228 221
322 323 324 324 323 322 322 324 325 325 326 329 332 333 336 336 328 306 272 253 239 223 222 226 223 223 223 223 226 226 222 219 220 223 222 223 228 228 223 221 220 221 223 223 223 223 221 220 220 220 219 218 217 217 218 219 218 217 217 216 214 213 215 216 213 215 221 222 217 208 205 217 229 229 233 246 252 255 258 252 249 250 249 247 247 237 213 204
321 323 324 323 322 321 320 321 322 322 324 330 333 335 337 341 344 332 287 256 238 213 210 215 212 212 214 213 218 220 211 205 208 217 221 220 222 227 226 223 222 223 225 225 225 223 221 220 221 221 221 219 217 217 217 217 216 217 219 218 219 220 222 223 219 219 224 226 224 217 217 228 234 233 233 233 239 251 266 269 264 258 251 249 250 228 188 188
321 321 323 323 322 321 319 318 318 320 325 331 333 336 338 342 349 345 318 280 244 209 200 204 202 200 203 198 201 210 203 192 191 203 216 220 218 221 224 222 220 220 222 224 226 224 221 220 221 223 224 222 219 220 220 220 219 220 223 223 224 227 230 232 231 229 228 230 228 221 224 237 240 242 240 223 223 236 237 251 260 259 256 258 255 222 183 191
321 321 324 325 322 320 319 318 318 321 326 331 334 335 337 341 346 344 329 304 264 219 198 193 192 192 195 192 187 196 200 193 187 190 201 215 219 219 221 221 218 218 220 221 222 224 222 221 221 223 225 223 220 222 221 219 219 220 222 223 224 227 232 236 237 236 233 232 231 229 235 245 244 247 246 231 229 235 227 230 244 252 256 257 253 234 207 214
324 322 324 324 321 319 319 319 319 322 326 331 334 336 338 339 341 341 331 309 280 239 205 189 186 189 191 191 188 189 195 194 191 189 193 202 212 218 222 222 217 215 219 221 220 222 223 220 218 220 224 223 219 221 222 219 219 220 221 224 226 225 227 230 232 233 234 235 237 239 244 246 244 247 248 242 237 234 232 232 234 246 255 253 250 243 223 217
326 324 323 324 322 318 318 318 319 322 326 328 332 336 338 337 335 337 334 314 287 259 218 197 195 198 189 186 188 185 184 187 187 185 187 192 198 206 218 225 223 217 218 221 220 220 222 221 219 218 221 224 221 219 220 219 219 223 225 224 223 220 219 224 228 228 232 236 239 241 242 241 241 240 241 244 238 226 230 234 230 235 246 249 251 245 216 206
328 324 322 325 323 319 318 318 318 323 326 326 331 335 336 337 333 332 336 322 290 270 235 214 217 217 195 185 188 185 179 180 181 180 182 185 186 190 201 211 217 215 214 217 219 217 216 219 222 220 219 221 223 221 219 218 219 224 228 225 220 218 218 221 224 225 230 236 238 239 242 244 243 236 227 235 238 224 223 228 224 223 231 239 247 244 221 212
329 326 323 325 325 321 320 318 317 321 325 325 330 334 331 334 333 329 336 329 295 272 251 233 231 230 215 200 192 183 178 177 177 177 180 181 182 188 195 198 203 208 206 207 211 210 208 209 213 220 222 219 220 224 221 217 218 220 223 225 220 218 223 225 225 227 229 233 237 240 242 245 245 237 214 213 227 229 222 221 218 217 224 231 237 242 232 223
330 328 325 326 326 324 321 318 318 321 325 325 326 329 329 329 330 328 332 332 310 278 256 246 242 238 233 223 201 183 181 180 177 177 180 181 182 188 195 196 198 204 205 203 204 203 205 208 201 204 225 224 218 223 223 219 218 216 216 220 219 215 220 226 226 225 224 226 228 231 234 241 250 247 233 225 228 231 222 217 217 218 226 232 236 240 236 230
330 328 326 326 325 324 320 318 320 322 323 323 322 325 326 324 324 326 327 330 322 293 262 252 252 247 241 233 214 191 187 185 181 181 182 182 183 187 193 193 192 198 203 202 201 198 201 208 201 186 205 227 224 223 225 223 222 220 219 222 223 217 217 224 223 219 219 220 220 222 227 236 241 230 234 248 249 233 219 214 217 218 225 233 236 237 233 224
330 328 328 327 326 324 320 317 319 321 320 318 318 319 319 317 317 320 323 327 326 308 276 256 254 254 247 237 224 207 198 192 188 186 184 184 184 186 189 188 187 192 198 197 198 197 196 200 199 184 187 214 230 235 233 228 226 225 225 226 228 225 221 223 224 219 216 216 217 218 207 209 236 231 226 242 251 234 218 212 217 218 221 229 232 233 229 219
330 330 329 328 326 323 319 317 317 319 318 315 314 313 312 313 313 314 319 323 324 315 290 262 252 254 252 239 231 226 215 202 196 191 184 182 182 183 186 186 185 189 195 196 195 197 195 194 194 187 182 194 215 233 240 236 228 223 223 224 227 229 226 224 225 222 218 214 214 215 197 188 227 236 220 224 236 234 220 212 217 216 218 227 230 227 227 224
330 331 329 327 325 321 319 320 317 317 317 313 309 308 307 308 309 310 313 316 318 315 301 275 255 252 250 242 237 235 227 212 202 192 182 180 180 181 183 185 185 188 193 196 196 196 193 191 188 185 182 184 192 207 223 231 227 219 217 217 220 224 226 225 222 222 222 216 212 213 203 182 183 197 200 206 220 234 232 222 225 222 221 229 229 226 229 232
331 330 329 328 325 320 319 319 316 316 316 311 307 304 302 303 303 305 307 309 312 312 308 292 266 252 248 245 241 237 233 223 206 192 184 181 179 178 182 184 184 187 191 194 197 196 192 188 186 182 180 182 185 194 209 220 221 216 213 212 212 213 218 224 221 218 221 220 214 213 209 193 177 179 195 207 218 240 250 238 229 222 218 223 226 227 229 231
332 329 328 329 327 323 321 318 316 317 314 309 305 300 296 298 297 298 302 304 306 308 311 303 280 259 249 246 243 238 236 227 207 193 188 184 181 180 183 184 184 185 188 191 196 198 192 187 186 184 180 182 184 191 206 219 222 217 209 207 208 206 205 217 223 219 218 220 219 214 210 205 194 187 195 207 216 239 252 248 233 219 215 218 225 229 229 234
334 332 329 330 330 327 324 320 318 319 313 307 303 296 291 294 294 294 298 299 302 305 310 307 291 272 255 248 245 240 235 224 208 198 191 185 183 185 186 186 185 184 187 190 194 197 192 187 186 185 183 183 183 186 199 215 225 224 212 204 205 203 200 206 219 219 215 215 218 215 210 209 207 205 208 213 216 231 247 253 250 233 219 213 214 218 220 231
338 336 332 331 330 328 326 322 321 321 315 306 299 291 291 295 294 295 296 294 298 303 307 308 298 282 266 254 248 241 233 225 213 203 194 187 186 189 189 188 187 185 185 190 195 196 192 187 185 185 184 182 184 185 185 197 216 226 220 207 203 203 201 201 210 218 215 212 214 216 214 210 210 216 222 222 223 231 242 250 247 229 208 199 200 207 215 225
340 338 335 334 332 328 328 326 323 322 316 304 296 292 297 304 301 299 296 292 295 301 307 312 305 289 270 261 256 242 233 227 219 208 198 190 188 190 191 190 188 185 185 190 196 197 192 187 185 185 184 183 186 187 181 184 202 214 211 200 198 203 203 197 199 211 213 209 209 213 215 212 212 222 228 226 225 229 233 235 227 207 193 193 199 208 216 223
340 339 339 340 338 334 333 332 328 325 318 305 297 298 309 316 313 306 298 293 294 300 306 309 310 298 274 265 261 245 236 232 224 213 203 194 189 189 191 191 189 186 185 190 195 197 192 187 186 186 185 184 186 186 180 181 194 203 198 188 190 200 204 195 190 199 206 203 200 201 205 207 212 220 225 226 226 226 225 221 210 198 195 198 203 210 217 221
339 339 340 344 344 340 338 337 334 331 324 312 302 307 322 324 318 313 305 297 295 299 306 307 308 305 284 270 263 248 241 238 229 219 208 198 192 190 189 190 188 186 187 189 193 197 194 188 187 186 184 184 186 185 181 181 188 197 196 187 184 192 201 196 188 186 195 199 195 194 199 199 204 213 217 219 222 223 224 219 207 202 208 212 207 205 207 209
343 342 343 346 347 345 344 345 345 343 335 323 307 310 325 325 319 318 314 306 298 296 303 309 310 309 291 271 263 254 249 244 234 224 213 203 197 192 186 186 187 187 189 189 190 196 196 190 187 185 183 185 188 185 181 182 186 192 194 184 180 187 196 199 193 182 183 196 195 193 198 200 202 211 211 207 211 217 221 220 212 210 215 214 209 206 204 203
Height
5877 5876 5876 5875 5874 5874 5873 5873 5872 5872 5872 5872 5871 5871 5870 5870 5870 5870 5869 5869 5869 5868 5868 5868 5869 5869 5869 5869 5869 5870 5870 5871 5871 5870 5870 5871 5872 5872 5873 5873 5874 5875 5877 5877 5878 5880 5881 5882 5882 5883 5884 5885 5886 5888 5889 5890 5891 5892 5893 5894 5896 5895 5896 5897 5898 5898 5898 5897 5897 5897 5898 5900 5901 5902 5903 5903 5903 5903 5904 5905 5905 5905 5906 5906 5906 5906 5907 5908
5875 5875 5874 5873 5873 5872 5871 5871 5870 5870 5870 5870 5869 5869 5869 5868 5868 5868 5867 5867 5866 5866 5867 5867 5867 5868 5867 5867 5868 5869 5869 5869 5869 5869 5869 5870 5870 5870 5871 5872 5873 5874 5875 5876 5877 5878 5879 5880 5881 5882 5883 5884 5885 5887 5888 5889 5890 5891 5892 5893 5895 5895 5895 5896 5897 5898 5898 5897 5897 5896 5897 5899 5901 5902 5902 5902 5903 5903 5904 5904 5905 5905 5905 5906 5906 5906 5907 5907
5873 5873 5872 5871 5871 5870 5870 5869 5868 5868 5868 5868 5867 5867 5867 5866 5866 5866 5866 5865 5864 5864 5865 5865 5865 5866 5866 5866 5866 5867 5867 5868 5868 5868 5869 5868 5868 5869 5870 5871 5872 5873 5873 5874 5875 5876 5877 5878 5879 5880 5882 5883 5884 5885 5886 5888 5889 5890 5891 5892 5893 5894 5895 5896 5897 5898 5898 5898 5898 5897 5897 5898 5899 5901 5902 5903 5903 5903 5904 5904 5904 5904 5905 5905 5905 5906 5906 5907
5871 5871 5870 5869 5869 5868 5868 5867 5867 5866 5866 5865 5865 5865 5865 5865 5864 5864 5864 5863 5862 5862 5863 5863 5863 5864 5864 5864 5865 5865 5866 5866 5866 5866 5867 5867 5867 5867 5868 5869 5870 5871 5872 5872 5873 5874 5875 5876 5878 5879 5880 5881 5883 5884 5885 5887 5888 5889 5891 5891 5892 5894 5895 5896 5897 5897 5898 5899 5899 5898 5898 5897 5896 5899 5901 5903 5903 5903 5903 5904 5904 5904 5904 5905 5904 5905 5906 5906
5869 5868 5868 5867 5866 5866 5865 5865 5864 5864 5864 5863 5863 5863 5862 5862 5862 5862 5862 5861 5861 5860 5860 5861 5861 5861 5862 5863 5863 5863 5864 5864 5863 5864 5866 5866 5866 5866 5866 5867 5868 5869 5870 5871 5872 5873 5874 5875 5877 5878 5879 5880 5881 5883 5884 5886 5887 5888 5890 5891 5892 5893 5894 5895 5896 5896 5898 5899 5899 5899 5899 5897 5896 5898 5899 5901 5903 5903 5902 5903 5903 5903 5903 5904 5904 5904 5905 5906
5866 5866 5865 5865 5864 5863 5863 5862 5862 5861 5861 5861 5860 5860 5860 5860 5860 5860 5860 5859 5859 5858 5858 5859 5859 5859 5859 5860 5861 5862 5863 5862 5861 5863 5864 5864 5864 5865 5865 5866 5866 5867 5868 5869 5870 5871 5872 5873 5875 5876 5878 5879 5880 5882 5883 5884 5886 5887 5889 5890 5891 5892 5893 5894 5895 5895 5897 5899 5899 5899 5899 5898 5897 5897 5898 5899 5901 5902 5901 5902 5903 5902 5903 5904 5904 5904 5905 5905
5863 5863 5862 5862 5861 5861 5860 5860 5859 5859 5858 5858 5858 5857 5857 5857 5857 5857 5857 5857 5856 5856 5856 5856 5857 5857 5857 5858 5859 5860 5860 5860 5861 5860 5860 5862 5862 5862 5864 5864 5865 5865 5866 5867 5868 5869 5870 5871 5873 5875 5876 5877 5879 5880 5881 5882 5884 5886 5887 5889 5890 5892 5893 5894 5894 5894 5895 5898 5898 5898 5899 5898 5897 5897 5897 5898 5900 5901 5901 5902 5902 5902 5902 5903 5904 5904 5904 5905
5860 5859 5859 5858 5858 5857 5857 5857 5857 5856 5856 5855 5855 5854 5854 5854 5854 5854 5854 5854 5854 5854 5854 5854 5855 5855 5855 5856 5857 5858 5857 5858 5860 5858 5858 5860 5860 5860 5862 5863 5863 5864 5864 5865 5866 5866 5868 5869 5871 5873 5874 5875 5877 5878 5879 5880 5882 5884 5885 5887 5889 5891 5892 5893 5893 5894 5894 5896 5897 5897 5898 5898 5896 5895 5895 5896 5899 5901 5901 5902 5902 5902 5902 5902 5903 5904 5904 5905
5856 5855 5855 5854 5854 5853 5853 5853 5853 5853 5852 5852 5852 5851 5851 5851 5851 5851 5851 5851 5851 5851 5851 5852 5852 5852 5853 5853 5855 5855 5853 5856 5857 5856 5856 5858 5858 5858 5860 5861 5861 5861 5862 5863 5863 5864 5866 5868 5869 5871 5872 5873 5874 5876 5876 5877 5880 5883 5884 5885 5887 5889 5890 5892 5893 5893 5893 5895 5896 5897 5898 5897 5896 5894 5894 5895 5898 5901 5901 5902 5902 5902 5901 5902 5903 5903 5903 5904
5852 5851 5851 5851 5850 5849 5849 5849 5849 5849 5848 5848 5848 5848 5848 5848 5848 5848 5848 5848 5848 5848 5848 5849 5849 5850 5851 5851 5853 5851 5848 5853 5856 5854 5855 5856 5856 5857 5857 5859 5860 5860 5860 5861 5862 5863 5864 5866 5867 5868 5869 5870 5872 5873 5874 5876 5879 5880 5881 5882 5884 5887 5888 5890 5891 5893 5893 5894 5895 5896 5896 5896 5896 5895 5894 5894 5897 5900 5900 5901 5902 5902 5901 5901 5902 5903 5903 5904
5848 5847 5847 5846 5846 5845 5845 5844 5844 5844 5844 5844 5844 5844 5843 5844 5844 5844 5844 5845 5845 5845 5845 5846 5846 5848 5848 5850 5851 5846 5845 5852 5854 5852 5853 5853 5854 5855 5855 5857 5858 5858 5858 5859 5860 5861 5862 5863 5864 5865 5867 5868 5869 5870 5872 5874 5876 5877 5879 5880 5881 5884 5886 5887 5889 5891 5892 5893 5894 5895 5895 5895 5895 5894 5893 5892 5895 5898 5899 5900 5901 5901 5902 5901 5902 5902 5902 5903
5844 5843 5842 5842 5841 5841 5840 5840 5840 5839 5839 5839 5839 5839 5839 5839 5839 5840 5840 5841 5842 5841 5842 5842 5843 5844 5845 5849 5847 5841 5844 5850 5850 5850 5850 5851 5851 5853 5854 5854 5855 5856 5856 5857 5857 5858 5859 5860 5861 5862 5865 5866 5867 5869 5870 5873 5874 5875 5876 5877 5879 5881 5883 5885 5887 5889 5890 5892 5893 5893 5894 5894 5893 5893 5893 5891 5892 5896 5898 5899 5900 5901 5902 5901 5901 5902 5902 5902
5840 5839 5838 5837 5837 5836 5835 5835 5835 5834 5834 5834 5834 5835 5834 5834 5834 5835 5835 5836 5837 5837 5838 5838 5839 5841 5843 5847 5842 5837 5843 5847 5847 5848 5848 5848 5848 5850 5852 5852 5852 5853 5854 5855 5855 5856 5857 5857 5859 5860 5862 5863 5865 5867 5869 5871 5872 5873 5874 5875 5877 5878 5880 5883 5885 5887 5889 5890 5891 5891 5892 5893 5893 5893 5892 5890 5891 5895 5897 5897 5898 5900 5901 5901 5901 5901 5902 5902
5836 5835 5834 5833 5832 5832 5831 5831 5830 5830 5829 5829 5829 5829 5829 5829 5829 5830 5830 5831 5832 5833 5833 5833 5835 5836 5840 5843 5837 5835 5840 5843 5845 5845 5844 5844 5844 5847 5850 5849 5850 5851 5852 5852 5852 5853 5854 5855 5856 5857 5858 5860 5863 5864 5865 5866 5868 5869 5871 5872 5875 5877 5879 5881 5883 5885 5887 5889 5889 5889 5891 5892 5892 5893 5892 5890 5889 5892 5896 5897 5898 5899 5900 5901 5901 5901 5901 5902
5832 5831 5830 5829 5828 5827 5827 5826 5826 5825 5825 5824 5824 5824 5824 5824 5824 5825 5825 5826 5826 5827 5828 5829 5830 5832 5836 5838 5833 5833 5837 5839 5842 5840 5839 5840 5841 5844 5847 5847 5847 5848 5849 5849 5850 5851 5852 5853 5854 5855 5856 5858 5859 5861 5862 5863 5865 5867 5867 5870 5872 5875 5877 5879 5881 5883 5885 5886 5887 5887 5890 5891 5891 5892 5891 5889 5888 5890 5894 5897 5898 5899 5899 5900 5900 5900 5900 5901
5828 5826 5825 5824 5823 5822 5822 5821 5821 5820 5820 5819 5819 5818 5819 5818 5818 5819 5820 5821 5821 5822 5822 5824 5825 5827 5831 5833 5830 5830 5832 5835 5837 5835 5836 5838 5839 5841 5843 5844 5844 5845 5846 5846 5847 5848 5849 5850 5851 5852 5853 5855 5856 5859 5860 5860 5863 5865 5866 5868 5871 5873 5875 5877 5879 5881 5883 5883 5884 5886 5888 5890 5891 5892 5891 5889 5888 5889 5892 5895 5898 5898 5898 5899 5899 5899 5899 5899
5823 5822 5820 5819 5818 5817 5816 5815 5815 5815 5814 5814 5814 5813 5813 5813 5813 5814 5815 5815 5815 5816 5816 5818 5820 5821 5825 5828 5827 5826 5827 5830 5832 5833 5835 5835 5836 5837 5838 5840 5841 5842 5843 5843 5844 5845 5846 5848 5849 5849 5850 5852 5854 5856 5856 5858 5861 5864 5865 5867 5869 5871 5873 5875 5877 5879 5881 5881 5882 5884 5886 5888 5890 5891 5890 5889 5888 5888 5890 5893 5895 5897 5897 5897 5898 5899 5899 5899
5819 5817 5816 5813 5812 5811 5810 5809 5809 5809 5808 5808 5808 5808 5807 5807 5807 5808 5809 5809 5809 5810 5810 5812 5814 5816 5820 5822 5823 5823 5823 5825 5827 5829 5831 5831 5832 5832 5834 5837 5837 5838 5839 5839 5841 5842 5844 5845 5846 5847 5848 5850 5851 5852 5854 5857 5861 5862 5864 5866 5867 5869 5871 5874 5876 5876 5879 5880 5880 5881 5885 5887 5889 5889 5889 5887 5887 5888 5889 5892 5893 5895 5897 5896 5896 5898 5898 5898
5814 5813 5811 5808 5807 5806 5804 5803 5802 5802 5802 5802 5801 5802 5801 5801 5802 5802 5803 5804 5804 5804 5804 5806 5808 5811 5815 5816 5818 5818 5818 5820 5820 5824 5827 5827 5828 5828 5830 5832 5833 5834 5834 5836 5839 5840 5841 5841 5842 5845 5847 5849 5850 5851 5854 5857 5859 5860 5862 5863 5865 5867 5869 5872 5874 5875 5877 5879 5880 5880 5883 5886 5887 5888 5888 5886 5886 5887 5888 5890 5892 5893 5895 5895 5896 5896 5897 5897
5809 5807 5805 5803 5801 5800 5798 5796 5795 5795 5795 5795 5794 5795 5794 5795 5795 5795 5797 5799 5799 5799 5799 5800 5801 5806 5809 5809 5811 5812 5812 5814 5816 5819 5822 5823 5823 5823 5825 5827 5829 5830 5832 5835 5836 5836 5837 5837 5840 5845 5847 5847 5848 5850 5852 5854 5855 5857 5858 5860 5862 5865 5867 5870 5872 5873 5875 5877 5878 5880 5881 5884 5885 5885 5886 5886 5885 5886 5888 5889 5890 5891 5892 5894 5895 5895 5895 5896
5803 5800 5799 5797 5794 5794 5792 5789 5788 5787 5787 5787 5787 5787 5786 5787 5788 5788 5790 5793 5794 5793 5794 5795 5794 5800 5805 5802 5803 5807 5807 5808 5812 5814 5817 5819 5818 5818 5820 5823 5825 5827 5830 5832 5832 5832 5831 5834 5841 5844 5844 5844 5845 5846 5848 5849 5851 5853 5855 5857 5860 5862 5865 5868 5871 5872 5875 5876 5877 5879 5880 5881 5883 5883 5884 5885 5883 5883 5886 5888 5889 5891 5892 5892 5893 5894 5894 5894
5796 5793 5791 5789 5787 5786 5785 5781 5780 5779 5780 5779 5779 5779 5778 5779 5779 5780 5783 5788 5790 5787 5787 5790 5789 5793 5799 5797 5796 5798 5800 5803 5806 5809 5812 5813 5813 5814 5816 5819 5821 5825 5827 5826 5826 5826 5828 5835 5841 5840 5840 5841 5841 5843 5844 5846 5848 5850 5852 5854 5856 5859 5863 5866 5869 5871 5874 5877 5876 5878 5879 5880 5882 5882 5882 5883 5882 5882 5885 5887 5888 5890 5892 5892 5891 5892 5892 5893
5788 5785 5783 5782 5778 5776 5776 5772 5769 5770 5770 5770 5770 5770 5770 5771 5770 5772 5775 5779 5786 5784 5779 5782 5784 5787 5792 5793 5789 5789 5795 5799 5801 5804 5806 5806 5809 5811 5812 5815 5818 5821 5821 5821 5822 5824 5829 5837 5838 5835 5836 5837 5838 5840 5841 5842 5844 5846 5848 5851 5854 5858 5860 5863 5868 5870 5872 5876 5877 5877 5878 5878 5880 5881 5880 5880 5880 5881 5884 5885 5885 5887 5889 5890 5890 5890 5891 5892
5780 5777 5775 5774 5769 5766 5766 5764 5759 5758 5760 5759 5759 5759 5760 5761 5761 5764 5766 5770 5779 5780 5773 5774 5778 5781 5785 5786 5782 5781 5788 5792 5793 5797 5799 5800 5804 5806 5807 5811 5814 5815 5816 5818 5820 5822 5828 5833 5830 5829 5832 5834 5835 5837 5838 5839 5841 5843 5846 5848 5852 5856 5858 5861 5867 5871 5871 5873 5876 5877 5877 5876 5878 5879 5878 5878 5878 5879 5881 5883 5883 5885 5887 5888 5889 5890 5890 5892
5772 5769 5767 5765 5762 5757 5756 5755 5750 5748 5749 5748 5747 5747 5748 5749 5751 5754 5758 5763 5770 5768 5765 5768 5770 5772 5775 5775 5775 5776 5780 5785 5789 5791 5792 5795 5799 5801 5803 5805 5808 5810 5812 5815 5816 5818 5825 5827 5825 5825 5828 5830 5832 5833 5836 5838 5839 5841 5844 5847 5851 5854 5856 5858 5863 5870 5871 5871 5872 5874 5874 5873 5874 5876 5876 5876 5875 5875 5878 5880 5882 5885 5886 5886 5888 5889 5890 5891
5763 5760 5757 5756 5754 5750 5747 5746 5742 5739 5739 5736 5736 5736 5735 5736 5738 5742 5748 5755 5759 5756 5757 5761 5760 5761 5765 5767 5770 5770 5772 5779 5784 5784 5785 5790 5793 5795 5796 5798 5802 5805 5808 5810 5811 5814 5819 5821 5820 5822 5825 5827 5829 5830 5833 5835 5836 5839 5842 5846 5849 5850 5853 5855 5858 5864 5868 5869 5870 5870 5872 5871 5871 5873 5874 5875 5874 5873 5874 5876 5878 5882 5886 5886 5887 5888 5889 5890
5756 5753 5750 5747 5746 5744 5741 5739 5735 5733 5730 5728 5727 5726 5725 5723 5725 5731 5737 5744 5747 5745 5746 5748 5749 5751 5754 5758 5761 5762 5767 5774 5778 5778 5781 5784 5786 5789 5790 5792 5797 5800 5803 5804 5805 5810 5815 5816 5816 5819 5822 5823 5825 5828 5832 5834 5835 5837 5841 5844 5846 5847 5850 5852 5854 5858 5863 5867 5868 5867 5869 5870 5869 5869 5872 5873 5873 5872 5872 5873 5873 5876 5881 5884 5886 5887 5889 5890
5750 5747 5744 5741 5738 5737 5735 5733 5731 5728 5724 5722 5720 5718 5716 5712 5713 5718 5725 5734 5736 5730 5730 5734 5738 5741 5743 5748 5753 5757 5762 5767 5770 5773 5774 5775 5779 5783 5785 5787 5791 5795 5797 5798 5801 5808 5812 5813 5814 5816 5819 5820 5823 5828 5830 5831 5832 5835 5839 5841 5843 5845 5848 5850 5851 5854 5858 5861 5863 5864 5866 5866 5866 5867 5869 5870 5870 5870 5870 5871 5870 5871 5875 5879 5883 5886 5888 5889
5745 5742 5740 5736 5733 5730 5729 5727 5725 5723 5720 5717 5714 5712 5708 5704 5704 5706 5712 5722 5721 5712 5716 5724 5729 5734 5738 5743 5747 5749 5753 5757 5762 5765 5764 5765 5770 5775 5779 5783 5785 5788 5792 5793 5797 5804 5807 5808 5810 5812 5814 5817 5821 5825 5827 5827 5829 5833 5836 5837 5840 5842 5845 5848 5848 5850 5853 5853 5855 5860 5861 5861 5862 5865 5867 5866 5866 5868 5869 5870 5870 5869 5872 5876 5880 5884 5886 5887
5742 5739 5737 5734 5731 5727 5724 5721 5719 5716 5713 5711 5709 5706 5702 5697 5695 5696 5700 5707 5703 5698 5707 5716 5720 5726 5730 5735 5738 5740 5745 5748 5752 5755 5755 5758 5762 5767 5773 5776 5778 5781 5785 5787 5790 5796 5801 5803 5805 5806 5810 5814 5818 5821 5823 5824 5827 5830 5832 5833 5836 5838 5841 5845 5846 5848 5848 5845 5848 5854 5857 5858 5859 5862 5864 5863 5863 5867 5868 5869 5869 5867 5869 5873 5876 5880 5882 5884
5739 5737 5734 5732 5729 5726 5723 5720 5716 5713 5709 5707 5703 5700 5696 5691 5687 5687 5688 5689 5688 5692 5701 5708 5712 5715 5718 5724 5730 5733 5736 5739 5742 5746 5749 5750 5753 5758 5763 5766 5768 5772 5776 5780 5783 5789 5793 5796 5798 5802 5806 5810 5814 5816 5818 5820 5823 5826 5827 5829 5831 5834 5837 5840 5843 5844 5840 5839 5845 5851 5853 5854 5854 5857 5861 5861 5862 5865 5866 5867 5867 5865 5866 5870 5874 5876 5879 5882
5737 5734 5730 5728 5726 5723 5720 5718 5715 5711 5708 5704 5699 5694 5691 5686 5681 5678 5675 5674 5679 5686 5693 5697 5701 5703 5706 5714 5723 5724 5725 5729 5733 5736 5740 5743 5746 5750 5756 5760 5763 5765 5769 5774 5778 5781 5787 5791 5795 5798 5801 5805 5808 5811 5813 5815 5818 5820 5822 5824 5827 5829 5832 5833 5836 5837 5835 5839 5846 5849 5850 5849 5848 5853 5857 5858 5859 5862 5864 5865 5864 5863 5865 5868 5871 5875 5878 5881
5734 5730 5727 5724 5722 5719 5716 5714 5712 5708 5704 5700 5696 5690 5686 5682 5677 5673 5668 5668 5674 5676 5677 5682 5688 5691 5697 5707 5714 5711 5709 5715 5723 5729 5733 5736 5739 5744 5751 5756 5760 5764 5768 5772 5773 5777 5784 5788 5790 5793 5797 5800 5803 5805 5807 5810 5814 5816 5818 5821 5824 5825 5827 5828 5831 5833 5834 5839 5845 5849 5848 5845 5846 5850 5854 5857 5859 5860 5862 5863 5862 5861 5863 5866 5870 5874 5877 5880
5730 5727 5724 5720 5718 5715 5713 5710 5707 5704 5699 5695 5691 5686 5682 5678 5674 5670 5665 5666 5669 5666 5665 5672 5679 5683 5688 5696 5696 5688 5692 5704 5712 5718 5723 5728 5732 5737 5743 5749 5755 5760 5763 5765 5767 5773 5778 5781 5785 5790 5793 5796 5800 5802 5805 5809 5812 5815 5817 5820 5822 5823 5824 5826 5829 5832 5835 5838 5842 5846 5844 5841 5844 5849 5852 5857 5859 5859 5860 5861 5861 5860 5861 5864 5868 5872 5876 5878
5726 5723 5720 5717 5713 5711 5708 5705 5701 5698 5695 5690 5686 5682 5677 5674 5671 5667 5663 5663 5665 5662 5661 5666 5674 5676 5676 5677 5674 5675 5689 5698 5696 5701 5712 5720 5727 5731 5737 5743 5750 5754 5756 5758 5763 5768 5771 5776 5783 5787 5789 5793 5798 5799 5803 5807 5809 5812 5814 5815 5817 5821 5824 5826 5829 5831 5834 5835 5837 5840 5840 5840 5845 5847 5851 5856 5857 5857 5858 5860 5861 5859 5859 5861 5863 5868 5873 5875
5722 5719 5717 5713 5709 5706 5703 5699 5696 5693 5690 5687 5683 5679 5674 5670 5666 5664 5661 5659 5660 5660 5660 5662 5665 5665 5665 5668 5670 5675 5684 5686 5687 5696 5705 5711 5721 5729 5734 5738 5744 5749 5750 5754 5759 5762 5766 5772 5779 5783 5784 5789 5794 5796 5799 5802 5805 5807 5809 5811 5816 5821 5823 5824 5826 5828 5830 5831 5833 5835 5837 5840 5843 5844 5847 5851 5854 5856 5856 5857 5859 5857 5856 5858 5859 5864 5869 5872
5718 5715 5712 5709 5705 5701 5698 5695 5692 5688 5685 5683 5679 5676 5672 5668 5664 5660 5657 5656 5656 5657 5657 5658 5656 5655 5658 5664 5667 5667 5670 5675 5684 5692 5696 5702 5714 5724 5729 5733 5740 5745 5748 5752 5755 5757 5762 5768 5773 5777 5781 5785 5789 5793 5795 5799 5802 5803 5805 5810 5815 5818 5819 5820 5822 5825 5827 5827 5830 5833 5834 5836 5838 5839 5843 5845 5847 5851 5853 5854 5857 5855 5853 5854 5857 5861 5867 5870
5714 5711 5708 5705 5701 5696 5693 5690 5687 5684 5681 5678 5675 5671 5669 5666 5663 5659 5654 5652 5652 5652 5653 5652 5649 5648 5652 5655 5657 5659 5665 5672 5678 5684 5689 5695 5701 5705 5710 5716 5722 5727 5733 5740 5746 5751 5758 5763 5767 5772 5777 5782 5786 5788 5790 5794 5798 5799 5803 5807 5811 5813 5814 5815 5817 5821 5823 5825 5828 5830 5831 5831 5833 5836 5840 5841 5842 5846 5848 5850 5853 5853 5851 5852 5855 5859 5864 5867
5710 5706 5703 5701 5696 5691 5688 5685 5681 5680 5677 5673 5670 5667 5665 5662 5660 5657 5653 5649 5648 5648 5649 5646 5643 5644 5647 5646 5649 5657 5662 5665 5669 5675 5680 5684 5687 5689 5692 5697 5702 5707 5714 5722 5731 5742 5751 5756 5762 5768 5773 5778 5780 5780 5783 5789 5793 5796 5799 5802 5806 5809 5810 5812 5816 5819 5822 5824 5826 5827 5828 5828 5830 5833 5837 5838 5840 5842 5844 5846 5849 5850 5850 5851 5854 5857 5860 5864
5706 5702 5697 5695 5691 5687 5683 5680 5676 5674 5672 5668 5666 5664 5661 5658 5656 5653 5650 5646 5644 5644 5644 5643 5639 5640 5641 5640 5645 5652 5656 5657 5660 5665 5668 5672 5677 5680 5685 5692 5699 5706 5712 5716 5725 5737 5745 5750 5756 5763 5768 5771 5772 5773 5778 5784 5788 5791 5793 5795 5799 5804 5807 5810 5814 5817 5820 5822 5824 5825 5826 5827 5830 5832 5833 5835 5838 5839 5841 5842 5845 5848 5849 5849 5853 5855 5858 5862
5702 5698 5693 5690 5687 5683 5679 5675 5672 5669 5666 5664 5661 5659 5657 5654 5653 5650 5647 5644 5641 5640 5640 5640 5636 5635 5636 5637 5640 5645 5648 5651 5653 5655 5659 5663 5667 5672 5680 5689 5696 5704 5711 5716 5725 5734 5738 5743 5750 5757 5762 5764 5766 5770 5776 5781 5785 5788 5791 5792 5796 5801 5804 5806 5810 5814 5818 5820 5822 5824 5826 5828 5830 5830 5830 5833 5836 5837 5839 5840 5842 5845 5847 5847 5850 5853 5856 5860
5698 5693 5689 5685 5682 5679 5675 5671 5668 5665 5663 5660 5657 5655 5654 5651 5649 5647 5644 5641 5638 5636 5636 5635 5633 5631 5632 5634 5637 5638 5640 5643 5645 5645 5649 5655 5661 5668 5676 5682 5688 5694 5700 5706 5714 5720 5725 5735 5744 5751 5755 5760 5767 5771 5773 5778 5783 5788 5790 5792 5795 5799 5801 5803 5806 5811 5815 5818 5821 5823 5825 5827 5828 5827 5828 5831 5833 5835 5837 5839 5840 5843 5844 5844 5847 5851 5854 5857
5694 5689 5685 5680 5677 5674 5671 5668 5665 5662 5659 5656 5654 5651 5650 5648 5646 5643 5640 5637 5635 5633 5631 5631 5629 5627 5628 5631 5632 5631 5631 5633 5635 5639 5645 5652 5658 5664 5670 5675 5679 5685 5691 5697 5704 5711 5720 5730 5740 5747 5752 5757 5764 5768 5770 5774 5779 5782 5785 5789 5791 5794 5798 5802 5805 5809 5813 5816 5819 5821 5823 5826 5826 5825 5827 5829 5831 5832 5835 5837 5838 5840 5842 5842 5845 5848 5851 5854
5690 5686 5682 5678 5674 5670 5666 5663 5660 5657 5655 5652 5650 5647 5645 5644 5642 5639 5636 5634 5631 5629 5628 5627 5626 5625 5626 5627 5625 5624 5624 5626 5630 5639 5647 5651 5655 5660 5665 5669 5672 5678 5687 5697 5704 5709 5716 5725 5733 5741 5747 5751 5757 5762 5763 5766 5770 5774 5778 5784 5788 5791 5795 5800 5803 5807 5809 5812 5816 5818 5821 5825 5826 5825 5826 5828 5829 5830 5834 5836 5836 5838 5840 5841 5843 5846 5849 5852
5686 5682 5678 5675 5670 5665 5662 5659 5655 5653 5650 5647 5645 5643 5641 5640 5638 5635 5633 5631 5628 5626 5625 5624 5623 5623 5622 5622 5620 5620 5619 5621 5629 5640 5645 5647 5651 5655 5658 5661 5665 5672 5683 5693 5699 5703 5709 5718 5726 5733 5739 5744 5749 5753 5755 5757 5762 5769 5774 5779 5785 5789 5792 5796 5800 5803 5805 5809 5813 5816 5819 5823 5825 5826 5826 5826 5827 5829 5832 5834 5835 5836 5837 5838 5841 5844 5847 5850
5682 5677 5674 5671 5667 5661 5657 5654 5651 5648 5645 5642 5640 5639 5637 5636 5634 5632 5629 5628 5626 5624 5622 5620 5620 5619 5619 5618 5617 5615 5614 5619 5629 5636 5640 5644 5648 5651 5654 5656 5661 5668 5677 5686 5691 5697 5705 5713 5721 5728 5734 5739 5745 5750 5754 5756 5759 5764 5770 5774 5780 5786 5790 5793 5797 5800 5803 5806 5810 5813 5817 5820 5822 5825 5825 5826 5828 5828 5827 5828 5832 5834 5835 5836 5839 5841 5845 5848
5678 5673 5668 5665 5663 5659 5654 5650 5647 5644 5641 5638 5636 5634 5633 5631 5630 5628 5626 5625 5623 5622 5620 5618 5616 5616 5615 5614 5612 5610 5612 5619 5627 5631 5636 5641 5644 5647 5650 5653 5657 5663 5671 5679 5684 5691 5699 5708 5716 5724 5729 5735 5742 5748 5751 5755 5758 5762 5767 5772 5776 5782 5788 5791 5793 5797 5801 5805 5807 5811 5814 5816 5819 5822 5823 5825 5827 5826 5823 5825 5829 5832 5834 5836 5838 5840 5844 5846
5674 5669 5663 5659 5657 5655 5652 5648 5643 5640 5636 5633 5632 5631 5629 5628 5626 5625 5623 5622 5620 5619 5618 5616 5614 5613 5612 5611 5609 5608 5611 5617 5622 5627 5632 5637 5641 5644 5647 5651 5655 5659 5666 5673 5678 5683 5693 5704 5712 5718 5724 5731 5737 5740 5744 5751 5756 5759 5765 5769 5773 5779 5784 5788 5792 5796 5800 5803 5806 5809 5811 5813 5816 5819 5820 5822 5824 5823 5822 5823 5827 5830 5833 5836 5838 5840 5842 5844
5671 5666 5662 5657 5653 5649 5646 5643 5639 5636 5632 5629 5628 5627 5627 5625 5623 5622 5620 5619 5617 5615 5614 5613 5612 5611 5609 5608 5607 5607 5609 5612 5617 5623 5628 5632 5636 5641 5644 5648 5653 5657 5662 5668 5672 5679 5690 5699 5705 5711 5718 5725 5730 5734 5739 5745 5751 5755 5761 5767 5772 5776 5781 5786 5791 5795 5799 5802 5806 5809 5810 5812 5814 5815 5816 5818 5819 5819 5820 5822 5825 5829 5832 5835 5837 5839 5841 5843
5668 5664 5660 5656 5651 5645 5641 5637 5634 5630 5628 5626 5625 5624 5624 5623 5621 5619 5617 5616 5615 5613 5612 5611 5610 5609 5607 5606 5606 5606 5606 5607 5611 5617 5624 5628 5632 5636 5639 5644 5650 5655 5657 5661 5668 5676 5684 5691 5698 5706 5712 5719 5727 5732 5733 5738 5745 5751 5756 5762 5767 5773 5778 5784 5789 5793 5797 5801 5804 5807 5808 5809 5810 5810 5812 5814 5815 5816 5817 5820 5824 5827 5829 5832 5835 5837 5839 5842
5665 5661 5656 5653 5648 5642 5637 5633 5629 5627 5625 5624 5623 5623 5622 5621 5618 5616 5615 5613 5612 5611 5610 5609 5608 5607 5606 5604 5603 5603 5602 5603 5606 5612 5618 5623 5626 5631 5635 5640 5646 5652 5652 5655 5664 5673 5679 5685 5693 5703 5711 5718 5724 5727 5727 5732 5740 5746 5752 5758 5764 5770 5775 5781 5785 5790 5796 5800 5802 5804 5805 5806 5805 5807 5809 5812 5813 5813 5814 5818 5822 5824 5826 5829 5832 5834 5838 5841
5663 5658 5654 5650 5645 5640 5635 5631 5627 5625 5623 5622 5622 5621 5620 5618 5616 5614 5613 5612 5610 5609 5608 5607 5605 5605 5604 5602 5601 5601 5599 5600 5602 5607 5613 5618 5622 5627 5632 5636 5642 5647 5649 5652 5661 5670 5678 5683 5689 5698 5708 5714 5719 5722 5725 5730 5736 5742 5750 5758 5765 5770 5774 5779 5784 5788 5794 5798 5800 5801 5803 5803 5803 5805 5808 5810 5811 5812 5813 5816 5819 5823 5825 5827 5830 5833 5836 5838